TimePST,TemperatureF,Dew PointF,Humidity,Sea Level PressureIn,VisibilityMPH,Wind Direction,Wind SpeedMPH,Gust SpeedMPH,PrecipitationIn,Events,Conditions,WindDirDegrees,DateUTC
12:58 AM,26.1,0.7,34,30.51,10.0,NE,15.0,-,N/A,,Clear,40,2013-01-15 08:58:00
1:58 AM,26.1,0.9,34,30.51,10.0,ENE,13.8,-,N/A,,Clear,60,2013-01-15 09:58:00
2:58 AM,25.7,1.4,35,30.51,10.0,Calm,Calm,-,N/A,,Clear,0,2013-01-15 10:58:00
3:58 AM,26.6,1.9,35,30.52,10.0,Calm,Calm,-,N/A,,Clear,0,2013-01-15 11:58:00
4:58 AM,23.5,2.1,40,30.53,10.0,Calm,Calm,-,N/A,,Clear,0,2013-01-15 12:58:00
5:58 AM,23.2,2.3,41,30.53,10.0,Calm,Calm,-,N/A,,Clear,0,2013-01-15 13:58:00
6:58 AM,24.1,2.5,39,30.56,10.0,North,3.5,-,N/A,,Clear,10,2013-01-15 14:58:00
7:58 AM,27.1,4.3,38,30.61,10.0,West,4.6,-,N/A,,Clear,270,2013-01-15 15:58:00
8:58 AM,29.7,5.4,36,30.61,10.0,SSE,1.2,-,N/A,,Clear,150,2013-01-15 16:58:00
9:58 AM,32.4,5.2,32,30.61,10.0,South,2.3,-,N/A,,Clear,190,2013-01-15 17:58:00
10:58 AM,35.1,5.2,29,30.58,10.0,SE,1.2,-,N/A,,Clear,130,2013-01-15 18:58:00
11:58 AM,40.3,7.3,26,30.52,10.0,NE,5.8,-,N/A,,Clear,50,2013-01-15 19:58:00
12:58 PM,44.2,9.7,24,30.50,10.0,East,2.3,-,N/A,,Clear,80,2013-01-15 20:58:00
1:58 PM,46.6,11.8,25,30.47,10.0,NE,16.1,-,N/A,,Clear,40,2013-01-15 21:58:00
2:58 PM,46.2,10.6,24,30.47,10.0,ENE,12.7,17.3,N/A,,Clear,70,2013-01-15 22:58:00
3:58 PM,46.4,10.4,23,30.48,10.0,Calm,Calm,-,N/A,,Clear,0,2013-01-15 23:58:00
4:58 PM,41.0,10.4,29,30.51,10.0,ENE,6.9,-,N/A,,Clear,60,2013-01-16 00:58:00
5:58 PM,39.2,10.4,31,30.53,10.0,Calm,Calm,-,N/A,,Clear,0,2013-01-16 01:58:00
6:58 PM,39.2,10.4,31,30.54,10.0,NE,12.7,-,N/A,,Clear,50,2013-01-16 02:58:00
7:58 PM,39.2,12.4,33,30.55,10.0,ENE,5.8,-,N/A,,Clear,70,2013-01-16 03:58:00
8:58 PM,35.6,12.2,38,30.54,10.0,Calm,Calm,-,N/A,,Clear,0,2013-01-16 04:58:00
9:58 PM,37.2,12.9,37,30.56,10.0,Calm,Calm,-,N/A,,Clear,0,2013-01-16 05:58:00
10:58 PM,35.6,13.3,40,30.55,10.0,NE,3.5,-,N/A,,Clear,50,2013-01-16 06:58:00
11:58 PM,33.8,10.4,38,30.55,10.0,Calm,Calm,-,N/A,,Clear,0,2013-01-16 07:58:00